Time,TemperatureF,DewpointF,PressureIn,WindDirection,WindDirectionDegrees,WindSpeedMPH,WindSpeedGustMPH,Humidity,HourlyPrecipIn,Conditions,Clouds,dailyrainin,SolarRadiationWatts/m^2,SoftwareType,DateUTC
2013-08-28 00:01:00,73.3,70.8,29.90,North,354,0.0,0.0,92,0.00,,,0.00,0.00,VWS V14.01,2013-08-28 04:01:00,
2013-08-28 00:02:00,73.3,70.8,29.90,North,354,0.0,0.0,92,0.00,,,0.00,0.00,VWS V14.01,2013-08-28 04:02:00,
2013-08-28 00:07:00,73.2,70.7,29.90,North,354,0.0,0.0,92,0.00,,,0.00,0.00,VWS V14.01,2013-08-28 04:07:00,
2013-08-28 00:12:00,73.2,70.7,29.90,North,354,0.0,0.0,92,0.00,,,0.00,0.00,VWS V14.01,2013-08-28 04:12:00,
2013-08-28 00:17:00,73.2,70.7,29.89,North,354,0.0,0.0,92,0.00,,,0.00,0.00,VWS V14.01,2013-08-28 04:17:00,
2013-08-28 00:21:00,73.2,70.7,29.89,North,354,0.0,0.0,92,0.00,,,0.00,0.00,VWS V14.01,2013-08-28 04:21:00,
2013-08-28 00:26:00,73.2,70.7,29.89,North,354,0.0,0.0,92,0.00,,,0.00,0.00,VWS V14.01,2013-08-28 04:26:00,
2013-08-28 00:31:00,73.0,70.5,29.89,North,354,0.0,0.0,92,0.00,,,0.00,0.00,VWS V14.01,2013-08-28 04:31:00,
2013-08-28 00:36:00,73.0,70.5,29.89,North,354,0.0,0.0,92,0.00,,,0.00,0.00,VWS V14.01,2013-08-28 04:36:00,
2013-08-28 00:41:00,72.8,70.3,29.89,North,354,0.0,0.0,92,0.00,,,0.00,0.00,VWS V14.01,2013-08-28 04:41:00,
2013-08-28 00:46:00,72.8,70.7,29.89,North,354,0.0,0.0,93,0.00,,,0.00,0.00,VWS V14.01,2013-08-28 04:46:00,
2013-08-28 00:51:00,72.7,70.6,29.89,North,354,0.0,0.0,93,0.00,,,0.00,0.00,VWS V14.01,2013-08-28 04:51:00,
2013-08-28 00:56:00,72.7,70.6,29.89,North,354,0.0,0.0,93,0.00,,,0.00,0.00,VWS V14.01,2013-08-28 04:56:00,
2013-08-28 01:01:00,72.7,70.6,29.89,North,354,0.0,0.0,93,0.00,,,0.00,0.00,VWS V14.01,2013-08-28 05:01:00,
2013-08-28 01:06:00,72.7,70.6,29.89,North,354,0.0,0.0,93,0.00,,,0.00,0.00,VWS V14.01,2013-08-28 05:06:00,
2013-08-28 01:11:00,72.5,70.4,29.89,North,354,0.0,0.0,93,0.00,,,0.00,0.00,VWS V14.01,2013-08-28 05:11:00,
2013-08-28 01:16:00,72.5,70.4,29.88,North,354,0.0,0.0,93,0.00,,,0.00,0.00,VWS V14.01,2013-08-28 05:16:00,
2013-08-28 01:21:00,72.3,70.2,29.88,North,354,0.0,0.0,93,0.00,,,0.00,0.00,VWS V14.01,2013-08-28 05:21:00,
2013-08-28 01:26:00,72.3,70.2,29.88,North,354,0.0,0.0,93,0.00,,,0.00,0.00,VWS V14.01,2013-08-28 05:26:00,
2013-08-28 01:31:00,72.3,70.2,29.88,North,354,0.0,0.0,93,0.00,,,0.00,0.00,VWS V14.01,2013-08-28 05:31:00,
2013-08-28 01:36:00,72.3,70.2,29.88,North,354,0.0,0.0,93,0.00,,,0.00,0.00,VWS V14.01,2013-08-28 05:36:00,
2013-08-28 01:41:00,72.3,70.2,29.88,North,354,0.0,0.0,93,0.00,,,0.00,0.00,VWS V14.01,2013-08-28 05:41:00,
2013-08-28 01:46:00,72.1,70.0,29.87,North,354,0.0,0.0,93,0.00,,,0.00,0.00,VWS V14.01,2013-08-28 05:46:00,
2013-08-28 01:51:00,72.1,70.0,29.87,North,354,0.0,0.0,93,0.00,,,0.00,0.00,VWS V14.01,2013-08-28 05:51:00,
2013-08-28 01:56:00,72.1,70.0,29.87,North,354,0.0,0.0,93,0.00,,,0.00,0.00,VWS V14.01,2013-08-28 05:56:00,
2013-08-28 02:00:00,72.0,69.9,29.87,North,354,0.0,0.0,93,0.00,,,0.00,0.00,VWS V14.01,2013-08-28 06:00:00,
2013-08-28 02:05:00,72.0,69.9,29.87,North,354,0.0,0.0,93,0.00,,,0.00,0.00,VWS V14.01,2013-08-28 06:05:00,
2013-08-28 02:10:00,71.8,69.7,29.87,North,354,0.0,0.0,93,0.00,,,0.00,0.00,VWS V14.01,2013-08-28 06:10:00,
2013-08-28 02:15:00,71.8,69.7,29.87,North,354,0.0,0.0,93,0.00,,,0.00,0.00,VWS V14.01,2013-08-28 06:15:00,
2013-08-28 02:20:00,71.6,69.8,29.87,North,354,0.0,0.0,94,0.00,,,0.00,0.00,VWS V14.01,2013-08-28 06:20:00,
2013-08-28 02:25:00,71.6,69.8,29.87,North,354,0.0,0.0,94,0.00,,,0.00,0.00,VWS V14.01,2013-08-28 06:25:00,
2013-08-28 02:30:00,71.6,69.8,29.87,North,354,0.0,0.0,94,0.00,,,0.00,0.00,VWS V14.01,2013-08-28 06:30:00,
2013-08-28 02:35:00,71.6,69.8,29.87,North,354,0.0,0.0,94,0.00,,,0.00,0.00,VWS V14.01,2013-08-28 06:35:00,
2013-08-28 02:40:00,71.5,69.7,29.87,North,354,0.0,0.0,94,0.00,,,0.00,0.00,VWS V14.01,2013-08-28 06:40:00,
2013-08-28 02:45:00,71.5,69.7,29.86,North,354,0.0,0.0,94,0.00,,,0.00,0.00,VWS V14.01,2013-08-28 06:45:00,
2013-08-28 02:50:00,71.5,69.7,29.86,North,354,0.0,0.0,94,0.00,,,0.00,0.00,VWS V14.01,2013-08-28 06:50:00,
2013-08-28 02:55:00,71.5,69.7,29.86,North,354,0.0,0.0,94,0.00,,,0.00,0.00,VWS V14.01,2013-08-28 06:55:00,
2013-08-28 03:00:00,71.3,69.5,29.87,North,354,0.0,0.0,94,0.00,,,0.00,0.00,VWS V14.01,2013-08-28 07:00:00,
2013-08-28 03:05:00,71.1,69.3,29.87,North,354,0.0,0.0,94,0.00,,,0.00,0.00,VWS V14.01,2013-08-28 07:05:00,
2013-08-28 03:10:00,71.1,69.3,29.87,North,354,0.0,0.0,94,0.00,,,0.00,0.00,VWS V14.01,2013-08-28 07:10:00,
2013-08-28 03:15:00,71.1,69.3,29.86,North,354,0.0,0.0,94,0.00,,,0.00,0.00,VWS V14.01,2013-08-28 07:15:00,
2013-08-28 03:20:00,71.1,69.3,29.86,North,354,0.0,0.0,94,0.00,,,0.00,0.00,VWS V14.01,2013-08-28 07:20:00,
2013-08-28 03:25:00,70.9,69.1,29.86,North,354,0.0,0.0,94,0.00,,,0.00,0.00,VWS V14.01,2013-08-28 07:25:00,
2013-08-28 03:30:00,70.9,69.1,29.86,North,354,0.0,0.0,94,0.00,,,0.00,0.00,VWS V14.01,2013-08-28 07:30:00,
2013-08-28 03:35:00,70.9,69.1,29.86,North,354,0.0,0.0,94,0.00,,,0.00,0.00,VWS V14.01,2013-08-28 07:35:00,
2013-08-28 03:40:00,70.9,69.1,29.86,North,354,0.0,0.0,94,0.00,,,0.00,0.00,VWS V14.01,2013-08-28 07:40:00,
2013-08-28 03:45:00,70.8,69.3,29.86,North,354,0.0,0.0,95,0.00,,,0.00,0.00,VWS V14.01,2013-08-28 07:45:00,
2013-08-28 03:50:00,70.8,69.3,29.86,North,354,0.0,0.0,95,0.00,,,0.00,0.00,VWS V14.01,2013-08-28 07:50:00,
2013-08-28 03:55:00,70.6,68.8,29.86,North,354,0.0,0.0,94,0.00,,,0.00,0.00,VWS V14.01,2013-08-28 07:55:00,
2013-08-28 04:00:00,70.6,69.1,29.85,North,354,0.0,0.0,95,0.00,,,0.00,0.00,VWS V14.01,2013-08-28 08:00:00,
2013-08-28 04:05:00,70.4,68.9,29.85,North,354,0.0,0.0,95,0.00,,,0.00,0.00,VWS V14.01,2013-08-28 08:05:00,
2013-08-28 04:10:00,70.4,68.9,29.85,North,354,0.0,0.0,95,0.00,,,0.00,0.00,VWS V14.01,2013-08-28 08:10:00,
2013-08-28 04:15:00,70.4,68.9,29.84,North,354,0.0,0.0,95,0.00,,,0.00,0.00,VWS V14.01,2013-08-28 08:15:00,
2013-08-28 04:20:00,70.4,68.9,29.84,North,354,0.0,0.0,95,0.00,,,0.00,0.00,VWS V14.01,2013-08-28 08:20:00,
2013-08-28 04:25:00,70.3,68.8,29.84,North,354,0.0,0.0,95,0.00,,,0.00,0.00,VWS V14.01,2013-08-28 08:25:00,
2013-08-28 04:30:00,70.3,68.8,29.84,North,354,0.0,0.0,95,0.00,,,0.00,0.00,VWS V14.01,2013-08-28 08:30:00,
2013-08-28 04:35:00,70.3,68.8,29.84,North,354,0.0,0.0,95,0.00,,,0.00,0.00,VWS V14.01,2013-08-28 08:35:00,
2013-08-28 04:40:00,70.3,68.8,29.84,North,354,0.0,0.0,95,0.00,,,0.00,0.00,VWS V14.01,2013-08-28 08:40:00,
2013-08-28 04:45:00,70.1,68.6,29.84,North,354,0.0,0.0,95,0.00,,,0.00,0.00,VWS V14.01,2013-08-28 08:45:00,
2013-08-28 04:50:00,69.9,68.4,29.84,North,354,0.0,0.0,95,0.00,,,0.00,0.00,VWS V14.01,2013-08-28 08:50:00,
2013-08-28 04:55:00,69.9,68.4,29.84,North,354,0.0,0.0,95,0.00,,,0.00,0.00,VWS V14.01,2013-08-28 08:55:00,
2013-08-28 05:00:00,69.9,68.4,29.85,North,354,0.0,0.0,95,0.00,,,0.00,0.00,VWS V14.01,2013-08-28 09:00:00,
2013-08-28 05:05:00,69.9,68.4,29.85,North,354,0.0,0.0,95,0.00,,,0.00,0.00,VWS V14.01,2013-08-28 09:05:00,
2013-08-28 05:10:00,69.8,68.3,29.85,North,354,0.0,0.0,95,0.00,,,0.00,0.00,VWS V14.01,2013-08-28 09:10:00,
2013-08-28 05:15:00,69.8,68.3,29.85,North,354,0.0,0.0,95,0.00,,,0.00,0.00,VWS V14.01,2013-08-28 09:15:00,
2013-08-28 05:20:00,69.8,68.3,29.85,North,354,0.0,0.0,95,0.00,,,0.00,0.00,VWS V14.01,2013-08-28 09:20:00,
2013-08-28 05:25:00,69.6,68.1,29.85,North,354,0.0,0.0,95,0.00,,,0.00,0.00,VWS V14.01,2013-08-28 09:25:00,
2013-08-28 05:30:00,69.6,68.1,29.86,North,354,0.0,0.0,95,0.00,,,0.00,0.00,VWS V14.01,2013-08-28 09:30:00,
2013-08-28 05:34:00,69.6,68.1,29.86,North,354,0.0,0.0,95,0.00,,,0.00,0.00,VWS V14.01,2013-08-28 09:34:00,
2013-08-28 05:39:00,69.8,68.3,29.86,North,354,0.0,0.0,95,0.00,,,0.00,0.00,VWS V14.01,2013-08-28 09:39:00,
2013-08-28 05:44:00,69.9,68.4,29.86,North,354,0.0,0.0,95,0.00,,,0.00,0.00,VWS V14.01,2013-08-28 09:44:00,
2013-08-28 05:49:00,69.8,68.3,29.86,North,354,0.0,0.0,95,0.00,,,0.00,0.00,VWS V14.01,2013-08-28 09:49:00,
2013-08-28 05:54:00,69.8,68.3,29.86,North,354,0.0,0.0,95,0.00,,,0.00,0.00,VWS V14.01,2013-08-28 09:54:00,
2013-08-28 05:59:00,69.6,68.1,29.86,North,354,0.0,0.0,95,0.00,,,0.00,0.00,VWS V14.01,2013-08-28 09:59:00,
2013-08-28 06:04:00,69.4,67.9,29.86,North,354,0.0,0.0,95,0.00,,,0.00,0.00,VWS V14.01,2013-08-28 10:04:00,
2013-08-28 06:09:00,69.4,67.9,29.86,North,354,0.0,0.0,95,0.00,,,0.00,0.00,VWS V14.01,2013-08-28 10:09:00,
2013-08-28 06:14:00,69.3,67.8,29.86,North,354,0.0,0.0,95,0.00,,,0.00,0.00,VWS V14.01,2013-08-28 10:14:00,
2013-08-28 06:19:00,69.3,68.1,29.86,North,354,0.0,0.0,96,0.00,,,0.00,0.00,VWS V14.01,2013-08-28 10:19:00,
2013-08-28 06:24:00,69.1,67.9,29.86,North,354,0.0,0.0,96,0.00,,,0.00,0.00,VWS V14.01,2013-08-28 10:24:00,
2013-08-28 06:29:00,69.1,67.9,29.86,North,354,0.0,0.0,96,0.00,,,0.00,0.00,VWS V14.01,2013-08-28 10:29:00,
2013-08-28 06:34:00,68.9,67.4,29.86,North,354,0.0,0.0,95,0.00,,,0.00,0.00,VWS V14.01,2013-08-28 10:34:00,
2013-08-28 06:39:00,68.9,67.7,29.86,North,354,0.0,0.0,96,0.00,,,0.00,0.00,VWS V14.01,2013-08-28 10:39:00,
2013-08-28 06:44:00,68.9,67.7,29.86,North,354,0.0,0.0,96,0.00,,,0.00,0.00,VWS V14.01,2013-08-28 10:44:00,
2013-08-28 06:49:00,68.9,67.7,29.86,North,354,0.0,0.0,96,0.00,,,0.00,5.00,VWS V14.01,2013-08-28 10:49:00,
2013-08-28 06:54:00,69.1,67.9,29.86,North,354,0.0,0.0,96,0.00,,,0.00,9.00,VWS V14.01,2013-08-28 10:54:00,
2013-08-28 06:59:00,69.3,68.1,29.86,North,354,0.0,0.0,96,0.00,,,0.00,16.00,VWS V14.01,2013-08-28 10:59:00,
2013-08-28 07:04:00,69.4,68.2,29.87,North,354,0.0,0.0,96,0.00,,,0.00,26.00,VWS V14.01,2013-08-28 11:04:00,
2013-08-28 07:09:00,69.4,68.2,29.87,North,354,0.0,0.0,96,0.00,,,0.00,32.00,VWS V14.01,2013-08-28 11:09:00,
2013-08-28 07:14:00,69.6,68.4,29.87,North,354,0.0,0.0,96,0.00,,,0.00,42.00,VWS V14.01,2013-08-28 11:14:00,
2013-08-28 07:19:00,69.9,68.7,29.87,North,354,0.0,0.0,96,0.00,,,0.00,60.00,VWS V14.01,2013-08-28 11:19:00,
2013-08-28 07:24:00,70.3,69.1,29.87,North,354,0.0,0.0,96,0.00,,,0.00,76.00,VWS V14.01,2013-08-28 11:24:00,
2013-08-28 07:29:00,70.4,69.2,29.87,North,354,0.0,0.0,96,0.00,,,0.00,79.00,VWS V14.01,2013-08-28 11:29:00,
2013-08-28 07:34:00,70.8,69.6,29.88,North,354,0.0,0.0,96,0.00,,,0.00,86.00,VWS V14.01,2013-08-28 11:34:00,
2013-08-28 07:39:00,71.1,69.9,29.88,North,354,0.0,0.0,96,0.00,,,0.00,81.00,VWS V14.01,2013-08-28 11:39:00,
2013-08-28 07:44:00,71.3,70.1,29.88,North,354,0.0,0.0,96,0.00,,,0.00,76.00,VWS V14.01,2013-08-28 11:44:00,
2013-08-28 07:49:00,71.5,70.3,29.88,North,354,0.0,0.0,96,0.00,,,0.00,77.00,VWS V14.01,2013-08-28 11:49:00,
2013-08-28 07:54:00,71.8,70.6,29.88,North,354,0.0,0.0,96,0.00,,,0.00,77.00,VWS V14.01,2013-08-28 11:54:00,
2013-08-28 07:59:00,72.0,70.8,29.88,North,354,0.0,0.0,96,0.00,,,0.00,81.00,VWS V14.01,2013-08-28 11:59:00,
2013-08-28 08:04:00,72.1,70.9,29.88,North,354,0.0,0.0,96,0.00,,,0.00,91.00,VWS V14.01,2013-08-28 12:04:00,
2013-08-28 08:09:00,72.3,71.1,29.88,North,354,0.0,0.0,96,0.00,,,0.00,105.00,VWS V14.01,2013-08-28 12:09:00,
2013-08-28 08:13:00,72.5,71.3,29.88,North,354,0.0,0.0,96,0.00,,,0.00,113.00,VWS V14.01,2013-08-28 12:13:00,
2013-08-28 08:18:00,72.7,71.5,29.88,North,354,0.0,0.0,96,0.00,,,0.00,123.00,VWS V14.01,2013-08-28 12:18:00,
2013-08-28 08:23:00,72.8,71.6,29.88,North,354,0.0,0.0,96,0.00,,,0.00,134.00,VWS V14.01,2013-08-28 12:23:00,
2013-08-28 08:28:00,73.2,72.0,29.88,North,354,0.0,0.0,96,0.00,,,0.00,149.00,VWS V14.01,2013-08-28 12:28:00,
2013-08-28 08:33:00,73.3,72.1,29.88,North,354,0.0,0.0,96,0.00,,,0.00,153.00,VWS V14.01,2013-08-28 12:33:00,
2013-08-28 08:38:00,73.9,72.7,29.88,North,354,0.0,0.0,96,0.00,,,0.00,163.00,VWS V14.01,2013-08-28 12:38:00,
2013-08-28 08:43:00,74.0,72.8,29.88,North,354,0.0,0.0,96,0.00,,,0.00,165.00,VWS V14.01,2013-08-28 12:43:00,
2013-08-28 08:48:00,74.4,73.2,29.87,North,354,0.0,0.0,96,0.00,,,0.00,174.00,VWS V14.01,2013-08-28 12:48:00,
2013-08-28 08:53:00,74.7,73.5,29.87,North,354,0.0,0.0,96,0.00,,,0.00,183.00,VWS V14.01,2013-08-28 12:53:00,
2013-08-28 08:58:00,75.1,73.6,29.87,North,354,0.0,0.0,95,0.00,,,0.00,195.00,VWS V14.01,2013-08-28 12:58:00,
2013-08-28 09:03:00,75.3,73.8,29.88,North,354,0.0,0.0,95,0.00,,,0.00,214.00,VWS V14.01,2013-08-28 13:03:00,
2013-08-28 09:08:00,75.6,73.8,29.88,North,354,0.0,0.0,94,0.00,,,0.00,227.00,VWS V14.01,2013-08-28 13:08:00,
2013-08-28 09:13:00,76.1,74.2,29.88,North,354,0.0,0.0,94,0.00,,,0.00,236.00,VWS V14.01,2013-08-28 13:13:00,
2013-08-28 09:18:00,76.5,74.0,29.88,North,354,0.0,0.0,92,0.00,,,0.00,237.00,VWS V14.01,2013-08-28 13:18:00,
2013-08-28 09:23:00,76.8,74.0,29.88,North,354,0.0,0.0,91,0.00,,,0.00,227.00,VWS V14.01,2013-08-28 13:23:00,
2013-08-28 09:28:00,77.2,73.7,29.88,North,354,0.0,0.0,89,0.00,,,0.00,214.00,VWS V14.01,2013-08-28 13:28:00,
2013-08-28 09:33:00,77.6,73.8,29.88,North,354,0.0,0.0,88,0.00,,,0.00,214.00,VWS V14.01,2013-08-28 13:33:00,
2013-08-28 09:38:00,77.7,72.8,29.88,NW,305,0.0,0.0,85,0.00,,,0.00,214.00,VWS V14.01,2013-08-28 13:38:00,
2013-08-28 09:43:00,78.1,72.2,29.88,WNW,285,0.0,0.0,82,0.00,,,0.00,213.00,VWS V14.01,2013-08-28 13:43:00,
2013-08-28 09:48:00,78.3,71.6,29.88,WNW,290,1.0,4.0,80,0.00,,,0.00,211.00,VWS V14.01,2013-08-28 13:48:00,
2013-08-28 09:53:00,78.6,71.6,29.88,WNW,290,0.0,0.0,79,0.00,,,0.00,211.00,VWS V14.01,2013-08-28 13:53:00,
2013-08-28 09:58:00,78.8,71.4,29.88,WNW,290,0.0,0.0,78,0.00,,,0.00,213.00,VWS V14.01,2013-08-28 13:58:00,
2013-08-28 10:03:00,79.2,71.4,29.89,WNW,290,0.0,0.0,77,0.00,,,0.00,216.00,VWS V14.01,2013-08-28 14:03:00,
2013-08-28 10:08:00,79.6,71.8,29.89,WNW,290,0.0,0.0,77,0.00,,,0.00,220.00,VWS V14.01,2013-08-28 14:08:00,
2013-08-28 10:13:00,79.9,72.4,29.89,WNW,290,0.0,0.0,78,0.00,,,0.00,229.00,VWS V14.01,2013-08-28 14:13:00,
2013-08-28 10:18:00,80.1,71.9,29.89,WNW,290,0.0,0.0,76,0.00,,,0.00,227.00,VWS V14.01,2013-08-28 14:18:00,
2013-08-28 10:23:00,80.3,71.3,29.89,WNW,290,0.0,0.0,74,0.00,,,0.00,232.00,VWS V14.01,2013-08-28 14:23:00,
2013-08-28 10:28:00,80.5,71.5,29.89,WNW,290,0.0,0.0,74,0.00,,,0.00,237.00,VWS V14.01,2013-08-28 14:28:00,
2013-08-28 10:33:00,80.7,71.7,29.90,WNW,290,0.0,0.0,74,0.00,,,0.00,253.00,VWS V14.01,2013-08-28 14:33:00,
2013-08-28 10:38:00,80.9,71.8,29.90,WNW,290,0.0,0.0,74,0.00,,,0.00,257.00,VWS V14.01,2013-08-28 14:38:00,
2013-08-28 10:43:00,81.1,71.6,29.90,WNW,290,0.0,0.0,73,0.00,,,0.00,260.00,VWS V14.01,2013-08-28 14:43:00,
2013-08-28 10:48:00,81.2,72.1,29.90,WNW,290,0.0,0.0,74,0.00,,,0.00,258.00,VWS V14.01,2013-08-28 14:48:00,
2013-08-28 10:53:00,81.6,72.1,29.90,WNW,290,0.0,0.0,73,0.00,,,0.00,260.00,VWS V14.01,2013-08-28 14:53:00,
2013-08-28 10:58:00,81.6,71.3,29.90,WNW,290,0.0,0.0,71,0.00,,,0.00,272.00,VWS V14.01,2013-08-28 14:58:00,
2013-08-28 11:03:00,81.8,71.9,29.90,WNW,292,0.0,0.0,72,0.00,,,0.00,292.00,VWS V14.01,2013-08-28 15:03:00,
2013-08-28 11:08:00,82.0,71.7,29.90,WNW,292,0.0,0.0,71,0.00,,,0.00,309.00,VWS V14.01,2013-08-28 15:08:00,
2013-08-28 11:13:00,82.4,72.1,29.90,WNW,292,0.0,0.0,71,0.00,,,0.00,334.00,VWS V14.01,2013-08-28 15:13:00,
2013-08-28 11:18:00,82.8,72.4,29.90,WNW,295,0.0,1.0,71,0.00,,,0.00,362.00,VWS V14.01,2013-08-28 15:18:00,
2013-08-28 11:23:00,83.2,72.0,29.90,WNW,290,0.0,0.0,69,0.00,,,0.00,392.00,VWS V14.01,2013-08-28 15:23:00,
2013-08-28 11:28:00,83.4,71.7,29.90,NW,319,4.0,5.0,68,0.00,,,0.00,397.00,VWS V14.01,2013-08-28 15:28:00,
2013-08-28 11:33:00,83.6,71.9,29.90,NW,323,0.0,0.0,68,0.00,,,0.00,390.00,VWS V14.01,2013-08-28 15:33:00,
2013-08-28 11:38:00,83.6,71.9,29.90,West,271,3.0,5.0,68,0.00,,,0.00,410.00,VWS V14.01,2013-08-28 15:38:00,
2013-08-28 11:43:00,84.0,71.9,29.90,WNW,299,3.0,7.0,67,0.00,,,0.00,434.00,VWS V14.01,2013-08-28 15:43:00,
2013-08-28 11:48:00,84.0,71.4,29.90,NW,311,0.0,0.0,66,0.00,,,0.00,464.00,VWS V14.01,2013-08-28 15:48:00,
2013-08-28 11:53:00,84.1,72.0,29.90,NNW,338,4.0,5.0,67,0.00,,,0.00,429.00,VWS V14.01,2013-08-28 15:53:00,
2013-08-28 11:58:00,84.5,71.9,29.90,North,358,4.0,4.0,66,0.00,,,0.00,381.00,VWS V14.01,2013-08-28 15:58:00,
2013-08-28 12:03:00,84.5,71.9,29.89,NW,316,0.0,0.0,66,0.00,,,0.00,350.00,VWS V14.01,2013-08-28 16:03:00,
2013-08-28 12:08:00,84.3,71.3,29.89,NNW,332,0.0,6.0,65,0.00,,,0.00,353.00,VWS V14.01,2013-08-28 16:08:00,
2013-08-28 12:13:00,84.3,72.2,29.89,NNW,342,0.0,6.0,67,0.00,,,0.00,338.00,VWS V14.01,2013-08-28 16:13:00,
2013-08-28 12:18:00,84.3,71.7,29.89,North,358,0.0,3.0,66,0.00,,,0.00,315.00,VWS V14.01,2013-08-28 16:18:00,
2013-08-28 12:23:00,84.1,71.5,29.89,WNW,297,0.0,0.0,66,0.00,,,0.00,288.00,VWS V14.01,2013-08-28 16:23:00,
2013-08-28 12:28:00,84.1,72.0,29.89,NW,306,0.0,0.0,67,0.00,,,0.00,257.00,VWS V14.01,2013-08-28 16:28:00,
2013-08-28 12:33:00,84.3,72.2,29.89,NW,307,0.0,0.0,67,0.00,,,0.00,218.00,VWS V14.01,2013-08-28 16:33:00,
2013-08-28 12:38:00,84.1,72.4,29.89,NW,311,0.0,0.0,68,0.00,,,0.00,197.00,VWS V14.01,2013-08-28 16:38:00,
2013-08-28 12:43:00,84.1,72.8,29.89,NW,311,0.0,0.0,69,0.00,,,0.00,211.00,VWS V14.01,2013-08-28 16:43:00,
2013-08-28 12:48:00,84.0,72.3,29.88,NW,311,0.0,0.0,68,0.00,,,0.00,225.00,VWS V14.01,2013-08-28 16:48:00,
2013-08-28 12:53:00,84.1,73.3,29.88,NW,311,0.0,0.0,70,0.00,,,0.00,221.00,VWS V14.01,2013-08-28 16:53:00,
2013-08-28 12:58:00,84.1,73.3,29.88,NW,311,0.0,1.0,70,0.00,,,0.00,197.00,VWS V14.01,2013-08-28 16:58:00,
2013-08-28 13:03:00,84.0,72.3,29.88,NW,312,3.0,5.0,68,0.00,,,0.00,181.00,VWS V14.01,2013-08-28 17:03:00,
2013-08-28 13:08:00,83.8,72.1,29.88,NW,312,0.0,0.0,68,0.00,,,0.00,172.00,VWS V14.01,2013-08-28 17:08:00,
2013-08-28 13:13:00,83.6,72.4,29.88,NW,312,0.0,0.0,69,0.00,,,0.00,183.00,VWS V14.01,2013-08-28 17:13:00,
2013-08-28 13:18:00,83.6,72.4,29.88,NW,312,0.0,0.0,69,0.00,,,0.00,197.00,VWS V14.01,2013-08-28 17:18:00,
2013-08-28 13:23:00,83.4,72.6,29.88,ENE,64,1.0,1.0,70,0.00,,,0.00,197.00,VWS V14.01,2013-08-28 17:23:00,
2013-08-28 13:28:00,83.4,72.2,29.88,NNW,335,0.0,0.0,69,0.00,,,0.00,197.00,VWS V14.01,2013-08-28 17:28:00,
2013-08-28 13:33:00,83.4,73.0,29.88,NNW,335,0.0,0.0,71,0.00,,,0.00,206.00,VWS V14.01,2013-08-28 17:33:00,
2013-08-28 13:38:00,83.4,73.0,29.88,NNW,335,0.0,0.0,71,0.00,,,0.00,204.00,VWS V14.01,2013-08-28 17:38:00,
2013-08-28 13:43:00,83.4,73.0,29.88,NNW,335,0.0,0.0,71,0.00,,,0.00,169.00,VWS V14.01,2013-08-28 17:43:00,
2013-08-28 13:48:00,83.2,73.2,29.88,NNW,335,0.0,0.0,72,0.00,,,0.00,206.00,VWS V14.01,2013-08-28 17:48:00,
2013-08-28 13:53:00,83.2,73.2,29.88,NNW,335,0.0,0.0,72,0.00,,,0.00,227.00,VWS V14.01,2013-08-28 17:53:00,
2013-08-28 13:58:00,83.2,73.2,29.88,NNW,335,0.0,0.0,72,0.00,,,0.00,214.00,VWS V14.01,2013-08-28 17:58:00,
2013-08-28 14:03:00,83.4,73.8,29.87,NNW,335,0.0,0.0,73,0.00,,,0.00,193.00,VWS V14.01,2013-08-28 18:03:00,
2013-08-28 14:08:00,83.4,73.0,29.87,West,276,4.0,4.0,71,0.00,,,0.00,167.00,VWS V14.01,2013-08-28 18:08:00,
2013-08-28 14:13:00,83.2,73.2,29.87,West,277,0.0,0.0,72,0.00,,,0.00,153.00,VWS V14.01,2013-08-28 18:13:00,
2013-08-28 14:18:00,83.0,72.6,29.87,West,277,0.0,0.0,71,0.00,,,0.00,156.00,VWS V14.01,2013-08-28 18:18:00,
2013-08-28 14:23:00,82.8,72.4,29.87,West,277,0.0,0.0,71,0.00,,,0.00,160.00,VWS V14.01,2013-08-28 18:23:00,
2013-08-28 14:28:00,82.6,72.7,29.87,West,277,4.0,5.0,72,0.00,,,0.00,162.00,VWS V14.01,2013-08-28 18:28:00,
2013-08-28 14:33:00,82.4,72.5,29.86,West,279,5.0,5.0,72,0.00,,,0.00,179.00,VWS V14.01,2013-08-28 18:33:00,
2013-08-28 14:38:00,82.2,72.7,29.86,NW,305,0.0,0.0,73,0.00,,,0.00,227.00,VWS V14.01,2013-08-28 18:38:00,
2013-08-28 14:43:00,82.2,72.3,29.86,NW,305,0.0,0.0,72,0.00,,,0.00,297.00,VWS V14.01,2013-08-28 18:43:00,
2013-08-28 14:48:00,82.4,72.9,29.86,NW,318,0.0,0.0,73,0.00,,,0.00,359.00,VWS V14.01,2013-08-28 18:48:00,
2013-08-28 14:53:00,82.6,72.7,29.86,West,280,4.0,4.0,72,0.00,,,0.00,359.00,VWS V14.01,2013-08-28 18:53:00,
2013-08-28 14:58:00,82.8,72.4,29.86,WNW,295,0.0,3.0,71,0.00,,,0.00,229.00,VWS V14.01,2013-08-28 18:58:00,
2013-08-28 15:03:00,83.0,72.6,29.86,WNW,295,0.0,0.0,71,0.00,,,0.00,185.00,VWS V14.01,2013-08-28 19:03:00,
2013-08-28 15:08:00,83.0,72.2,29.86,WNW,295,0.0,0.0,70,0.00,,,0.00,192.00,VWS V14.01,2013-08-28 19:08:00,
2013-08-28 15:13:00,83.0,71.8,29.86,WSW,243,0.0,0.0,69,0.00,,,0.00,229.00,VWS V14.01,2013-08-28 19:13:00,
2013-08-28 15:18:00,83.2,73.2,29.84,WNW,294,0.0,0.0,72,0.00,,,0.00,246.00,VWS V14.01,2013-08-28 19:18:00,
2013-08-28 15:23:00,83.4,73.4,29.84,WNW,295,0.0,0.0,72,0.00,,,0.00,209.00,VWS V14.01,2013-08-28 19:23:00,
2013-08-28 15:28:00,83.4,73.0,29.84,WNW,295,0.0,0.0,71,0.00,,,0.00,160.00,VWS V14.01,2013-08-28 19:28:00,
2013-08-28 15:33:00,83.2,72.8,29.85,WNW,295,0.0,0.0,71,0.00,,,0.00,141.00,VWS V14.01,2013-08-28 19:33:00,
2013-08-28 15:38:00,83.2,73.2,29.85,WNW,295,0.0,0.0,72,0.00,,,0.00,156.00,VWS V14.01,2013-08-28 19:38:00,
2013-08-28 15:43:00,83.0,73.1,29.85,WNW,295,0.0,0.0,72,0.00,,,0.00,181.00,VWS V14.01,2013-08-28 19:43:00,
2013-08-28 15:48:00,83.0,73.1,29.85,WNW,295,0.0,0.0,72,0.00,,,0.00,214.00,VWS V14.01,2013-08-28 19:48:00,
2013-08-28 15:53:00,83.0,73.5,29.85,WNW,295,0.0,0.0,73,0.00,,,0.00,237.00,VWS V14.01,2013-08-28 19:53:00,
2013-08-28 15:58:00,83.2,73.7,29.85,NNW,335,3.0,4.0,73,0.00,,,0.00,211.00,VWS V14.01,2013-08-28 19:58:00,
2013-08-28 16:03:00,83.2,74.1,29.84,NNW,335,0.0,0.0,74,0.00,,,0.00,202.00,VWS V14.01,2013-08-28 20:03:00,
2013-08-28 16:08:00,83.2,74.1,29.84,NNW,335,0.0,0.0,74,0.00,,,0.00,207.00,VWS V14.01,2013-08-28 20:08:00,
2013-08-28 16:13:00,83.2,74.5,29.84,NNW,335,0.0,0.0,75,0.00,,,0.00,186.00,VWS V14.01,2013-08-28 20:13:00,
2013-08-28 16:18:00,83.2,74.1,29.84,NNW,335,0.0,0.0,74,0.00,,,0.00,167.00,VWS V14.01,2013-08-28 20:18:00,
2013-08-28 16:23:00,83.0,74.7,29.84,NNW,335,0.0,0.0,76,0.00,,,0.00,148.00,VWS V14.01,2013-08-28 20:23:00,
2013-08-28 16:28:00,82.8,73.7,29.84,NNW,335,0.0,0.0,74,0.00,,,0.00,114.00,VWS V14.01,2013-08-28 20:28:00,
2013-08-28 16:33:00,82.6,73.9,29.83,NNW,335,0.0,0.0,75,0.00,,,0.00,86.00,VWS V14.01,2013-08-28 20:33:00,
2013-08-28 16:38:00,82.4,74.1,29.83,WSW,255,0.0,0.0,76,0.00,,,0.00,84.00,VWS V14.01,2013-08-28 20:38:00,
2013-08-28 16:43:00,82.2,73.1,29.83,WSW,255,0.0,0.0,74,0.00,,,0.00,84.00,VWS V14.01,2013-08-28 20:43:00,
2013-08-28 16:48:00,82.0,73.3,29.83,WSW,255,0.0,0.0,75,0.00,,,0.00,90.00,VWS V14.01,2013-08-28 20:48:00,
2013-08-28 16:53:00,82.0,73.7,29.83,WSW,255,0.0,0.0,76,0.00,,,0.00,79.00,VWS V14.01,2013-08-28 20:53:00,
2013-08-28 16:58:00,82.0,74.8,29.83,WSW,255,0.0,0.0,79,0.00,,,0.00,74.00,VWS V14.01,2013-08-28 20:58:00,
2013-08-28 17:03:00,81.8,75.0,29.83,WSW,255,0.0,0.0,80,0.00,,,0.00,65.00,VWS V14.01,2013-08-28 21:03:00,
2013-08-28 17:08:00,81.6,75.2,29.83,WSW,255,0.0,0.0,81,0.00,,,0.00,70.00,VWS V14.01,2013-08-28 21:08:00,
2013-08-28 17:13:00,81.4,75.4,29.83,WSW,255,0.0,0.0,82,0.00,,,0.00,76.00,VWS V14.01,2013-08-28 21:13:00,
2013-08-28 17:18:00,81.4,75.4,29.81,WSW,255,0.0,0.0,82,0.00,,,0.00,62.00,VWS V14.01,2013-08-28 21:18:00,
2013-08-28 17:23:00,81.4,75.7,29.81,WSW,255,0.0,0.0,83,0.00,,,0.00,51.00,VWS V14.01,2013-08-28 21:23:00,
2013-08-28 17:28:00,81.2,75.9,29.81,WSW,255,0.0,0.0,84,0.00,,,0.00,37.00,VWS V14.01,2013-08-28 21:28:00,
2013-08-28 17:33:00,81.1,75.8,29.82,WSW,255,0.0,0.0,84,0.00,,,0.00,25.00,VWS V14.01,2013-08-28 21:33:00,
2013-08-28 17:38:00,80.9,75.6,29.82,WSW,255,0.0,0.0,84,0.00,,,0.00,26.00,VWS V14.01,2013-08-28 21:38:00,
2013-08-28 17:43:00,80.7,75.4,29.82,WSW,255,0.0,0.0,84,0.00,,,0.00,28.00,VWS V14.01,2013-08-28 21:43:00,
2013-08-28 17:48:00,80.5,75.2,29.82,WSW,255,0.0,0.0,84,0.00,,,0.00,28.00,VWS V14.01,2013-08-28 21:48:00,
2013-08-28 17:53:00,80.3,75.0,29.82,WSW,255,0.0,0.0,84,0.00,,,0.00,28.00,VWS V14.01,2013-08-28 21:53:00,
2013-08-28 17:58:00,80.1,75.2,29.82,WSW,255,0.0,0.0,85,0.00,,,0.00,25.00,VWS V14.01,2013-08-28 21:58:00,
2013-08-28 18:03:00,80.1,75.5,29.82,WSW,255,0.0,0.0,86,0.00,,,0.00,26.00,VWS V14.01,2013-08-28 22:03:00,
2013-08-28 18:08:00,79.9,75.3,29.82,WSW,255,0.0,0.0,86,0.00,,,0.00,30.00,VWS V14.01,2013-08-28 22:08:00,
2013-08-28 18:13:00,79.9,75.7,29.82,WSW,255,0.0,0.0,87,0.00,,,0.00,30.00,VWS V14.01,2013-08-28 22:13:00,
2013-08-28 18:18:00,79.9,75.7,29.82,WSW,255,0.0,0.0,87,0.00,,,0.00,30.00,VWS V14.01,2013-08-28 22:18:00,
2013-08-28 18:23:00,79.9,76.0,29.82,WSW,255,0.0,0.0,88,0.00,,,0.00,37.00,VWS V14.01,2013-08-28 22:23:00,
2013-08-28 18:28:00,79.8,75.9,29.82,WSW,255,0.0,0.0,88,0.00,,,0.00,37.00,VWS V14.01,2013-08-28 22:28:00,
2013-08-28 18:33:00,79.8,75.9,29.82,WSW,255,0.0,0.0,88,0.00,,,0.00,32.00,VWS V14.01,2013-08-28 22:33:00,
2013-08-28 18:38:00,79.8,75.9,29.82,WSW,255,0.0,0.0,88,0.00,,,0.00,33.00,VWS V14.01,2013-08-28 22:38:00,
2013-08-28 18:43:00,79.8,75.9,29.82,WSW,255,0.0,0.0,88,0.00,,,0.00,37.00,VWS V14.01,2013-08-28 22:43:00,
2013-08-28 18:48:00,79.8,75.9,29.82,WSW,255,0.0,0.0,88,0.00,,,0.00,44.00,VWS V14.01,2013-08-28 22:48:00,
2013-08-28 18:53:00,79.8,75.6,29.82,WSW,255,0.0,0.0,87,0.00,,,0.00,49.00,VWS V14.01,2013-08-28 22:53:00,
2013-08-28 18:58:00,79.8,75.6,29.82,WSW,255,0.0,0.0,87,0.00,,,0.00,62.00,VWS V14.01,2013-08-28 22:58:00,
2013-08-28 19:03:00,79.9,75.3,29.82,WSW,255,0.0,0.0,86,0.00,,,0.00,54.00,VWS V14.01,2013-08-28 23:03:00,
2013-08-28 19:08:00,79.9,75.3,29.82,WSW,255,0.0,0.0,86,0.00,,,0.00,40.00,VWS V14.01,2013-08-28 23:08:00,
2013-08-28 19:13:00,79.9,74.6,29.82,WSW,255,0.0,0.0,84,0.00,,,0.00,32.00,VWS V14.01,2013-08-28 23:13:00,
2013-08-28 19:18:00,79.9,74.6,29.81,WSW,255,0.0,0.0,84,0.00,,,0.00,18.00,VWS V14.01,2013-08-28 23:18:00,
2013-08-28 19:23:00,80.1,74.5,29.81,WSW,255,0.0,0.0,83,0.00,,,0.00,11.00,VWS V14.01,2013-08-28 23:23:00,
2013-08-28 19:28:00,80.1,74.8,29.81,WSW,255,0.0,0.0,84,0.00,,,0.00,9.00,VWS V14.01,2013-08-28 23:28:00,
2013-08-28 19:33:00,80.1,74.5,29.81,WSW,255,0.0,0.0,83,0.00,,,0.00,7.00,VWS V14.01,2013-08-28 23:33:00,
2013-08-28 19:38:00,80.1,74.8,29.81,WSW,255,0.0,0.0,84,0.00,,,0.00,5.00,VWS V14.01,2013-08-28 23:38:00,
2013-08-28 19:43:00,79.9,74.6,29.81,WSW,255,0.0,0.0,84,0.00,,,0.00,0.00,VWS V14.01,2013-08-28 23:43:00,
2013-08-28 19:48:00,79.9,74.6,29.81,WSW,255,0.0,0.0,84,0.00,,,0.00,0.00,VWS V14.01,2013-08-28 23:48:00,
2013-08-28 19:53:00,79.9,74.6,29.81,WSW,255,0.0,0.0,84,0.00,,,0.00,0.00,VWS V14.01,2013-08-28 23:53:00,
2013-08-28 19:58:00,79.8,75.2,29.81,WSW,255,0.0,0.0,86,0.00,,,0.00,0.00,VWS V14.01,2013-08-28 23:58:00,
2013-08-28 20:03:00,79.8,75.2,29.81,WSW,255,0.0,0.0,86,0.00,,,0.00,0.00,VWS V14.01,2013-08-29 00:03:00,
2013-08-28 20:08:00,79.6,75.1,29.81,WSW,255,0.0,0.0,86,0.00,,,0.00,0.00,VWS V14.01,2013-08-29 00:08:00,
2013-08-28 20:13:00,79.4,74.8,29.81,WSW,255,0.0,0.0,86,0.00,,,0.00,0.00,VWS V14.01,2013-08-29 00:13:00,
2013-08-28 20:18:00,79.2,74.7,29.81,WSW,255,0.0,0.0,86,0.00,,,0.00,0.00,VWS V14.01,2013-08-29 00:18:00,
2013-08-28 20:23:00,79.0,74.5,29.81,WSW,255,0.0,0.0,86,0.00,,,0.00,0.00,VWS V14.01,2013-08-29 00:23:00,
2013-08-28 20:28:00,78.8,74.3,29.81,WSW,255,0.0,0.0,86,0.00,,,0.00,0.00,VWS V14.01,2013-08-29 00:28:00,
2013-08-28 20:33:00,78.8,74.6,29.81,WSW,255,0.0,0.0,87,0.00,,,0.00,0.00,VWS V14.01,2013-08-29 00:33:00,
2013-08-28 20:38:00,78.6,74.4,29.81,WSW,255,0.0,0.0,87,0.00,,,0.00,0.00,VWS V14.01,2013-08-29 00:38:00,
2013-08-28 20:43:00,78.6,74.8,29.81,WSW,255,0.0,0.0,88,0.00,,,0.00,0.00,VWS V14.01,2013-08-29 00:43:00,
2013-08-28 20:48:00,78.6,74.8,29.81,WSW,255,0.0,0.0,88,0.00,,,0.00,0.00,VWS V14.01,2013-08-29 00:48:00,
2013-08-28 20:53:00,78.6,74.8,29.81,WSW,255,0.0,0.0,88,0.00,,,0.00,0.00,VWS V14.01,2013-08-29 00:53:00,
2013-08-28 20:58:00,78.5,74.7,29.81,WSW,255,0.0,0.0,88,0.00,,,0.00,0.00,VWS V14.01,2013-08-29 00:58:00,
2013-08-28 21:03:00,78.5,74.7,29.81,WSW,255,0.0,0.0,88,0.00,,,0.00,0.00,VWS V14.01,2013-08-29 01:03:00,
2013-08-28 21:08:00,78.3,74.5,29.81,WSW,255,0.0,0.0,88,0.00,,,0.00,0.00,VWS V14.01,2013-08-29 01:08:00,
2013-08-28 21:13:00,78.3,74.8,29.81,WSW,255,0.0,0.0,89,0.00,,,0.00,0.00,VWS V14.01,2013-08-29 01:13:00,
2013-08-28 21:18:00,78.3,74.8,29.80,WSW,255,0.0,0.0,89,0.00,,,0.00,0.00,VWS V14.01,2013-08-29 01:18:00,
2013-08-28 21:23:00,78.3,74.8,29.80,WSW,255,0.0,0.0,89,0.00,,,0.00,0.00,VWS V14.01,2013-08-29 01:23:00,
2013-08-28 21:28:00,78.3,74.8,29.80,WSW,255,0.0,0.0,89,0.00,,,0.00,0.00,VWS V14.01,2013-08-29 01:28:00,
2013-08-28 21:33:00,78.3,74.8,29.80,WSW,255,0.0,0.0,89,0.00,,,0.00,0.00,VWS V14.01,2013-08-29 01:33:00,
2013-08-28 21:38:00,78.3,74.8,29.80,WSW,255,0.0,0.0,89,0.00,,,0.00,0.00,VWS V14.01,2013-08-29 01:38:00,
2013-08-28 21:43:00,78.1,74.6,29.80,WSW,255,0.0,0.0,89,0.00,,,0.00,0.00,VWS V14.01,2013-08-29 01:43:00,
2013-08-28 21:48:00,78.1,74.9,29.81,WSW,255,0.0,0.0,90,0.00,,,0.00,0.00,VWS V14.01,2013-08-29 01:48:00,
2013-08-28 21:53:00,78.1,74.9,29.81,WSW,255,0.0,0.0,90,0.00,,,0.00,0.00,VWS V14.01,2013-08-29 01:53:00,
2013-08-28 21:58:00,78.1,74.9,29.81,WSW,255,0.0,0.0,90,0.00,,,0.00,0.00,VWS V14.01,2013-08-29 01:58:00,
2013-08-28 22:03:00,77.9,74.7,29.81,WSW,255,0.0,0.0,90,0.00,,,0.00,0.00,VWS V14.01,2013-08-29 02:03:00,
2013-08-28 22:08:00,77.7,74.5,29.81,WSW,255,0.0,0.0,90,0.00,,,0.00,0.00,VWS V14.01,2013-08-29 02:08:00,
2013-08-28 22:13:00,77.7,74.2,29.81,WSW,255,0.0,0.0,89,0.00,,,0.00,0.00,VWS V14.01,2013-08-29 02:13:00,
2013-08-28 22:18:00,77.6,74.1,29.80,WSW,254,0.0,0.0,89,0.00,,,0.00,0.00,VWS V14.01,2013-08-29 02:18:00,
2013-08-28 22:23:00,77.6,73.8,29.80,WSW,254,2.0,2.0,88,0.00,,,0.00,0.00,VWS V14.01,2013-08-29 02:23:00,
2013-08-28 22:28:00,77.7,73.5,29.80,SSW,194,0.0,0.0,87,0.00,,,0.00,0.00,VWS V14.01,2013-08-29 02:28:00,
2013-08-28 22:33:00,77.9,73.4,29.80,SSW,194,0.0,0.0,86,0.00,,,0.00,0.00,VWS V14.01,2013-08-29 02:33:00,
2013-08-28 22:38:00,78.1,73.2,29.80,SSW,201,0.0,0.0,85,0.00,,,0.00,0.00,VWS V14.01,2013-08-29 02:38:00,
2013-08-28 22:43:00,78.3,73.1,29.80,SSW,203,0.0,2.0,84,0.00,,,0.00,0.00,VWS V14.01,2013-08-29 02:43:00,
2013-08-28 22:48:00,78.5,72.9,29.79,SSW,192,3.0,3.0,83,0.00,,,0.00,0.00,VWS V14.01,2013-08-29 02:48:00,
2013-08-28 22:53:00,78.6,73.0,29.79,SSW,212,0.0,0.0,83,0.00,,,0.00,0.00,VWS V14.01,2013-08-29 02:53:00,
2013-08-28 22:58:00,78.6,72.7,29.79,SW,230,0.0,0.0,82,0.00,,,0.00,0.00,VWS V14.01,2013-08-29 02:58:00,
2013-08-28 23:03:00,78.6,72.7,29.79,SW,236,0.0,0.0,82,0.00,,,0.00,0.00,VWS V14.01,2013-08-29 03:03:00,
2013-08-28 23:08:00,78.6,72.3,29.79,WSW,256,5.0,6.0,81,0.00,,,0.00,0.00,VWS V14.01,2013-08-29 03:08:00,
2013-08-28 23:13:00,78.8,72.5,29.79,SW,214,0.0,0.0,81,0.00,,,0.00,0.00,VWS V14.01,2013-08-29 03:13:00,
2013-08-28 23:18:00,79.0,72.3,29.78,West,279,1.0,2.0,80,0.00,,,0.00,0.00,VWS V14.01,2013-08-29 03:18:00,
2013-08-28 23:23:00,79.2,72.5,29.78,West,263,0.0,0.0,80,0.00,,,0.00,0.00,VWS V14.01,2013-08-29 03:23:00,
2013-08-28 23:28:00,79.2,72.5,29.78,SSW,203,3.0,4.0,80,0.00,,,0.00,0.00,VWS V14.01,2013-08-29 03:28:00,
2013-08-28 23:33:00,79.4,72.3,29.78,WSW,244,2.0,3.0,79,0.00,,,0.00,0.00,VWS V14.01,2013-08-29 03:33:00,
2013-08-28 23:38:00,79.4,72.3,29.78,WSW,253,2.0,9.0,79,0.00,,,0.00,0.00,VWS V14.01,2013-08-29 03:38:00,
2013-08-28 23:43:00,79.4,72.3,29.78,West,270,3.0,4.0,79,0.00,,,0.00,0.00,VWS V14.01,2013-08-29 03:43:00,
2013-08-28 23:48:00,79.6,72.1,29.78,West,262,8.0,8.0,78,0.00,,,0.00,0.00,VWS V14.01,2013-08-29 03:48:00,
2013-08-28 23:53:00,79.6,72.1,29.78,West,262,4.0,7.0,78,0.00,,,0.00,0.00,VWS V14.01,2013-08-29 03:53:00,
2013-08-28 23:58:00,79.8,72.3,29.78,WSW,258,7.0,8.0,78,0.00,,,0.00,0.00,VWS V14.01,2013-08-29 03:58:00,